CZ-4C DEB, 43261

Orbit data source: Space-Track

CZ-4C DEB, 43261 is space debris in SSO originally from a launch on Sat, 31 Mar 2018 UTC launched from the Taiyaun Space Center, China (TSC). Debris objects in space refer to the collection of defunct objects orbiting the Earth. Examples of debris include non-operational satellites, rocket bodies, and fragments generated from explosions, collisions, or faulty payload assembly.

Loading next visibility...
Identifier
43261, 2018-031C
Orbit
SSO
Country
Flag of CNCN / PRC
Related business
Manufacturer
Unknown
Mission
Spacecraft
Bus & Motor
Unknown
Mass
Unknown
Launch date (UTC)
2018-03-31 (8 years ago)
Launch vehicle
Unknown
Launch site
Taiyaun Space Center, China (TSC)
Object type
Payload
Rocket body
Debris
Shape & HBR
Unknown shape, 3.0 m
Radar Cross Section
Large (>1 m²)

Expand to show TLE details & history
Last TLE update: 7 hours ago

TLE from 7 hours ago
0 CZ-4C DEB
1 43261U 18031C   25287.91701289  .00009159  00000-0  79978-3 0  9997
2 43261  97.8056   7.1121 0002641  12.2341 347.8944 14.97029982407653
Epoch: 2025-10-14T22:00Z
TLE epoch observation values (Epoch: 2025-10-14T22:00:29.913Z)
Latitude
-0.00005°
Longitude
13.2889°
Altitude
577.33 km
Speed
7.573 km/s
True Right ascension
00h 28m 26s
True Declination
0° 00' 00"
Sunlit
Object was in full shadow at epoch
Visualization orbit readout
Latitude
Unknown
Longitude
Unknown
Altitude
Unknown
Speed
Unknown
Apparent Right ascension
Unknown
Apparent Declination
Unknown
Sunlit
N/A
Visualization observer readout
Local Sidereal Time
23:26:30
Azimuth
Unknown
Elevation
Unknown
Doppler factor
Unknown
Orbital elements
Apogee altitude
574.929 km
Perigee altitude
571.257 km
Semi-major axis
6,951.23 km
Eccentricity
0.00026
Inclination
97.8056°
RAAN
7.1121°
Arg. of periapsis
12.2341°
True anomaly
347.88805°
Mean anomaly
347.8944°
Eccentric anomaly
347.89123°
Mean motion
3.74499 °/min
Orbital period
96.13 mins
BSTAR
0.00079978
Loading maneuver chart data...
Computing Atmospheric mass density...
Loading historical data...
Loading historical data...
Loading historical data...
Loading historical data...
Loading historical data...
Loading historical data...
Loading historical data...

Documentation

Showing up to 5 results
|